Weather History for Mansfield, OH

Change the Weather History Date:

Wednesday, March 6, 2013

  Actual Average Record
Temperature  
Mean Temperature 35 °F 34 °F  
Max Temperature 42 °F 42 °F 72 °F (1973)
Min Temperature 27 °F 25 °F 4 °F (1960)
Degree Days  
Heating Degree Days 30 32  
Month to date heating degree days 226 195  
Since 1 July heating degree days 4599 4820  
Cooling Degree Days 0 0  
Month to date cooling degree days 0 0  
Year to date cooling degree days 0 0  
Moisture  
Dew Point 29 °F    
Average Humidity 85    
Maximum Humidity 100    
Minimum Humidity 70    
Precipitation  
Precipitation 0.19 in 0.10 in 1.06 in (1991)
Month to date precipitation 0.28 0.56  
Year to date precipitation 5.01 5.82  
Snow  
Snow 2.00 in 0.30 in - ()
Month to date snowfall 3.9 2.0  
Since 1 July snowfall 33.7 39.9  
Snow Depth 2.00 in    
Sea Level Pressure  
Sea Level Pressure 29.89 in    
Wind  
Wind Speed 9 mph (NNW)    
Max Wind Speed 14 mph    
Max Gust Speed 18 mph    
Visibility 6 miles    
Events Snow    
T = Trace of Precipitation, MM = Missing Value Source: NWS Daily Summary

Daily Weather History Graph

Daily Weather History Graph

Search for Another Location

Airport:

Trip Planner

Search our weather history database for the weather conditions in past years. The results will help you decide how hot, cold, wet, or windy it might be!

Date:

Astronomy

Mar. 06, 2013 Rise Set
Actual Time 6:55 AM EST 6:27 PM EST
Civil Twilight 6:28 AM EST 6:54 PM EST
Nautical Twilight 5:56 AM EST 7:26 PM EST
Astronomical Twilight 5:24 AM EST 7:58 PM EST
Moon 3:05 AM EST (3/6) 1:06 PM EST (3/6)
Length of Visible Light 12h 26m
Length of Day
11h 31m
Waning Crescent, 30% of the Moon is Illuminated
Mar 6
Waning Crescent
Mar 11
New
Mar 19
First Quarter
Mar 27
Full
Apr 3
Last Quarter

Hourly Weather History & Observations

Time (EST) Temp. Windchill Dew Point Humidity Pressure Visibility Wind Dir Wind Speed Gust Speed Precip Events Conditions
12:07 AM 30.2 °F 21.3 °F 26.6 °F 86% 29.62 in 2.5 mi North 10.4 mph - 0.00 in Snow Light Snow
12:29 AM 30.2 °F 21.9 °F 26.6 °F 86% 29.61 in 1.5 mi NNE 9.2 mph - 0.01 in Snow Light Snow
12:48 AM 30.2 °F 21.3 °F 28.4 °F 93% 29.61 in 1.0 mi North 10.4 mph - 0.02 in Snow Light Snow
12:52 AM 30.0 °F 20.5 °F 28.0 °F 92% 29.65 in 0.8 mi NNE 11.5 mph - 0.02 in Snow Light Snow
1:06 AM 30.2 °F 19.8 °F 28.4 °F 93% 29.62 in 0.8 mi NNE 13.8 mph - 0.03 in Snow Light Snow
1:38 AM 30.2 °F 20.8 °F 28.4 °F 93% 29.62 in 0.8 mi North 11.5 mph - 0.08 in Snow Light Snow
1:45 AM 30.2 °F 21.9 °F 28.4 °F 93% 29.62 in 1.0 mi North 9.2 mph - 0.09 in Snow Light Snow
1:52 AM 30.0 °F 21.1 °F 28.9 °F 96% 29.66 in 1.0 mi NNE 10.4 mph - 0.09 in Snow Light Snow
2:05 AM 30.2 °F 20.8 °F 28.4 °F 93% 29.64 in 0.8 mi NNE 11.5 mph - 0.02 in Snow Light Snow
2:41 AM 28.4 °F 19.1 °F 28.4 °F 100% 29.64 in 1.0 mi NNE 10.4 mph - 0.06 in Snow Light Snow
2:49 AM 28.4 °F 19.1 °F 28.4 °F 100% 29.64 in 1.0 mi North 10.4 mph - 0.06 in Snow Light Snow
2:52 AM 28.9 °F 19.8 °F 28.0 °F 96% 29.68 in 1.0 mi NNE 10.4 mph - 0.06 in Snow Light Snow
3:29 AM 30.2 °F 20.2 °F 28.4 °F 93% 29.65 in 1.8 mi North 12.7 mph - 0.02 in Snow Light Snow
3:38 AM 30.2 °F 20.8 °F 28.4 °F 93% 29.65 in 2.0 mi North 11.5 mph - 0.02 in Snow Light Snow
3:52 AM 30.0 °F 20.5 °F 28.0 °F 92% 29.69 in 2.5 mi NNE 11.5 mph - 0.02 in Snow Light Snow
4:07 AM 30.2 °F 20.2 °F 28.4 °F 93% 29.67 in 3.0 mi NNE 12.7 mph - 0.00 in Snow Light Snow
4:52 AM 30.9 °F 22.2 °F 28.9 °F 92% 29.73 in 7.0 mi North 10.4 mph - 0.00 in   Overcast
5:52 AM 30.9 °F 22.2 °F 28.9 °F 92% 29.78 in 7.0 mi North 10.4 mph - N/A   Overcast
6:52 AM 30.9 °F 22.2 °F 28.0 °F 89% 29.83 in 9.0 mi North 10.4 mph - N/A   Overcast
7:52 AM 30.9 °F 22.2 °F 28.0 °F 89% 29.88 in 8.0 mi North 10.4 mph - N/A   Overcast
8:36 AM 30.2 °F 21.9 °F 28.4 °F 93% 29.89 in 8.0 mi North 9.2 mph - N/A   Overcast
8:52 AM 30.9 °F 23.5 °F 28.0 °F 89% 29.93 in 8.0 mi North 8.1 mph - N/A   Overcast
9:52 AM 32.0 °F 24.2 °F 28.0 °F 85% 29.97 in 9.0 mi North 9.2 mph - N/A   Overcast
10:52 AM 34.0 °F 26.0 °F 28.0 °F 79% 30.01 in 9.0 mi North 10.4 mph - N/A   Overcast
11:52 AM 37.4 °F 32.1 °F 30.2 °F 75% 30.00 in 10.0 mi NNW 6.9 mph - N/A   Overcast
12:52 PM 37.0 °F 31.0 °F 30.0 °F 76% 30.05 in 10.0 mi North 8.1 mph - N/A   Overcast
1:52 PM 39.9 °F 36.7 °F 30.9 °F 70% 30.05 in 10.0 mi North 4.6 mph - N/A   Overcast
2:14 PM 42.8 °F 37.5 °F 30.2 °F 61% 30.02 in 10.0 mi NW 9.2 mph - N/A   Mostly Cloudy
2:47 PM 37.4 °F 32.1 °F 30.2 °F 75% 30.03 in 10.0 mi WNW 6.9 mph - N/A   Overcast
2:52 PM 39.0 °F 31.8 °F 30.0 °F 70% 30.07 in 10.0 mi NW 11.5 mph - N/A   Overcast
3:00 PM 39.2 °F 32.5 °F 30.2 °F 70% 30.04 in 10.0 mi NW 10.4 mph - N/A   Overcast
3:52 PM 39.0 °F 32.8 °F 30.0 °F 70% 30.09 in 10.0 mi NW 9.2 mph - N/A   Overcast
4:52 PM 39.0 °F 35.7 °F 30.0 °F 70% 30.09 in 10.0 mi WNW 4.6 mph - N/A   Overcast
5:52 PM 36.0 °F 28.5 °F 30.9 °F 82% 30.12 in 10.0 mi NNW 10.4 mph - N/A   Overcast
6:52 PM 34.0 °F 26.0 °F 30.0 °F 85% 30.16 in 10.0 mi NW 10.4 mph - N/A   Overcast
7:08 PM 33.8 °F 24.8 °F 30.2 °F 87% 30.13 in 10.0 mi NW 12.7 mph - N/A   Overcast
7:23 PM 33.8 °F 27.7 °F 30.2 °F 87% 30.13 in 10.0 mi NW 6.9 mph - N/A   Overcast
7:52 PM 32.0 °F 24.8 °F 28.9 °F 88% 30.17 in 10.0 mi NW 8.1 mph - N/A   Overcast
8:52 PM 30.9 °F 24.3 °F 28.0 °F 89% 30.19 in 10.0 mi NW 6.9 mph - N/A   Clear
9:52 PM 28.9 °F 22.8 °F 28.0 °F 96% 30.20 in 7.0 mi WNW 5.8 mph - N/A   Clear
10:52 PM 28.0 °F 21.7 °F 26.1 °F 92% 30.21 in 6.0 mi NW 5.8 mph - N/A   Mostly Cloudy
11:35 PM 30.2 °F 25.4 °F 28.4 °F 93% 30.17 in 9.0 mi West 4.6 mph - N/A   Overcast
11:52 PM 30.9 °F 26.2 °F 28.0 °F 89% 30.20 in 10.0 mi WNW 4.6 mph - N/A   Overcast